Location: Dampvalley
(47.9094°N, 6.1967°E)
Time: 02:28:17
(UTC+00:00)

N. Korean satellite - Pass Details

Date: 05 December 2022
Orbit: 408 x 444 km, 97.3° (Epoch: 28 January)

Event Time Altitude Azimuth Distance (km) Brightness Sun altitude
Rises 16:23:25 0° 182° (S) 2,457 10.6 -6.7°
Reaches altitude 10° 16:25:31 10° 190° (S) 1,599 9.7 -7.0°
Maximum altitude 16:28:46 40° 262° (W) 697 8.0 -7.5°
Drops below altitude 10° 16:32:06 10° 333° (NNW) 1,634 9.3 -8.0°
Sets 16:34:16 0° 341° (NNW) 2,521 10.1 -8.3°
